Yeager (CRW)

 

Airport Diagram
Current Weather/Forecast (VFR Conditions)
METAR KCRW 211054Z 00000KT 10SM FEW000 12/12 A3021 RMK AO2 SLP225 FG FEW000 T01220122 $
TAF KCRW 210901Z 2109/2206 00000KT 1/4SM FG BKN001 TEMPO 2109/2111 6SM BR SCT001 FM211200 00000KT 1SM BR SKC FM211230 22004KT P6SM FEW250 FM212000 25004KT P6SM FEW250

Airport Information

All Charts
General
Chart Name View
AIRPORT DIAGRAM
AIRPORT DIAGRAM
TAKEOFF MINIMUMS
ALTERNATE MINIMUMS
TAKEOFF MINIMUMS
ALTERNATE MINIMUMS

Approaches
Chart Name Download
ILS OR LOC RWY 05
ILS OR LOC RWY 23
RNAV (RNP) Z RWY 05
RNAV (RNP) Z RWY 23
RNAV (GPS) Y RWY 05
RNAV (GPS) Y RWY 23
VOR-A
ILS OR LOC RWY 05
ILS OR LOC RWY 23
RNAV (RNP) Z RWY 05
RNAV (RNP) Z RWY 23
RNAV (GPS) Y RWY 05
RNAV (GPS) Y RWY 23
VOR-A


Airport Statistics
Departures Arrivals Local
All Collected Stats since June 2016: 354 288 18
2020 Stats: 113 110 0
October Stats: 5 9 0

Inbound Traffic (Arrivals) - 0

No inbound traffic.


Outbound Traffic (Departures) - 0

No outbound traffic.


Local Traffic (Pattern) - 0

No local traffic.